AG1T-20 Weather Reports


Display with metric or nautical units.
time (UTC)temp
F
wind
direction
speed
MPH
gust
MPH
rain 1hr
in
rain 24hr
in
rain mn
in
humidity
%
barometer
mb
20260502152004 49 303 0.0 4.0 0.00 0.00 0.00 50 1023.2
20260502151004 50 304 0.0 2.0 0.00 0.00 0.00 49 1023.2
20260502123004 35 115 0.0 1.0 0.00 0.00 0.00 82 1022.7
20260502122004 35 131 0.0 2.0 0.00 0.00 0.00 81 1022.7
20260502121005 35 81 0.0 2.0 0.00 0.00 0.00 82 1022.7
20260502115004 34 54 0.0 3.0 0.00 0.00 0.00 83 1022.8
20260502114004 35 325 0.0 3.0 0.00 0.00 0.00 83 1022.8
20260502113004 35 94 0.0 1.0 0.00 0.00 0.00 82 1022.8
20260502112004 35 201 0.0 1.0 0.00 0.00 0.00 82 1022.8
20260502111005 35 96 0.0 1.0 0.00 0.00 0.00 82 1022.8
20260502110005 35 241 0.0 0.0 0.00 0.00 0.00 81 1022.8
20260502105004 36 135 0.0 1.0 0.00 0.00 0.00 79 1022.8
20260502104004 36 162 0.0 2.0 0.00 0.00 0.00 79 1022.8
20260502103004 37 164 0.0 2.0 0.00 0.00 0.00 77 1022.8
20260502102004 38 69 0.0 3.0 0.00 0.00 0.00 74 1022.8
20260502101004 37 115 0.0 2.0 0.00 0.00 0.00 77 1022.8
20260502091004 38 106 0.0 2.0 0.00 0.00 0.00 75 1022.6
20260502071004 41 100 0.0 1.0 0.00 0.00 0.00 72 1022.5
20260502070004 41 265 0.0 1.0 0.00 0.00 0.00 69 1022.5
20260502065004 42 204 0.0 2.0 0.00 0.00 0.00 67 1022.0
20260502064004 42 39 0.0 3.0 0.00 0.00 0.00 64 1022.0
20260502063004 42 51 0.0 1.0 0.00 0.00 0.00 65 1022.0
20260502062004 43 104 0.0 1.0 0.00 0.00 0.00 66 1022.0
20260502061004 43 14 0.0 1.0 0.00 0.00 0.00 63 1022.0
20260502060004 43 33 0.0 1.0 0.00 0.00 0.00 63 1022.0
20260502055005 44 32 0.0 1.0 0.00 0.00 0.00 60 1021.8
20260502054004 44 78 0.0 1.0 0.00 0.00 0.00 64 1021.8
20260502053004 45 234 0.0 2.0 0.00 0.00 0.00 59 1021.8
20260502052004 47 191 1.0 4.0 0.00 0.00 0.00 55 1021.8
20260502051004 47 173 1.0 4.0 0.00 0.00 0.00 55 1021.8
20260502050004 47 129 1.0 5.0 0.00 0.00 0.00 55 1021.8
20260502045004 47 148 1.0 4.0 0.00 0.00 0.00 57 1021.6
20260502044004 47 178 1.0 4.0 0.00 0.00 0.00 61 1021.6
20260502043004 47 211 1.0 5.0 0.00 0.00 0.00 58 1021.6
20260502042005 48 222 0.0 3.0 0.00 0.00 0.00 56 1021.6
20260502041005 50 149 1.0 4.0 0.00 0.00 0.00 51 1021.6
20260502040005 50 130 1.0 4.0 0.00 0.00 0.00 52 1021.6
20260502035004 51 140 2.0 6.0 0.00 0.00 0.00 50 1020.8
20260502034004 51 133 1.0 5.0 0.00 0.00 0.00 49 1020.8
20260502033004 51 134 0.0 2.0 0.00 0.00 0.00 53 1020.8
20260502032004 52 297 0.0 2.0 0.00 0.00 0.00 47 1020.8
20260502031004 52 147 0.0 3.0 0.00 0.00 0.00 47 1020.8
20260502030004 53 143 1.0 3.0 0.00 0.00 0.00 44 1020.8
20260502025004 55 118 1.0 4.0 0.00 0.00 0.00 41 1020.6
20260502024005 55 144 0.0 1.0 0.00 0.00 0.00 41 1020.6
20260502023004 56 169 0.0 1.0 0.00 0.00 0.00 41 1020.6
20260502022004 59 281 0.0 2.0 0.00 0.00 0.00 32 1020.6
20260502021004 62 321 0.0 3.0 0.00 0.00 0.00 28 1020.6
20260502020004 64 331 1.0 4.0 0.00 0.00 0.00 27 1020.6
20260502015004 65 331 1.0 5.0 0.00 0.00 0.00 26 1020.5
20260502014004 65 299 1.0 5.0 0.00 0.00 0.00 26 1020.5
20260502013004 65 313 1.0 6.0 0.00 0.00 0.00 25 1020.5
20260502012004 66 306 1.0 5.0 0.00 0.00 0.00 27 1020.5
20260502011004 67 12 1.0 6.0 0.00 0.00 0.00 22 1020.5
20260502010004 66 316 2.0 8.0 0.00 0.00 0.00 23 1020.5
20260502005004 66 347 2.0 7.0 0.00 0.00 0.00 26 1020.6
20260502004005 66 311 2.0 8.0 0.00 0.00 0.00 26 1020.6
20260502003004 65 291 2.0 8.0 0.00 0.00 0.00 27 1020.6
20260502002004 66 304 2.0 12.0 0.00 0.00 0.00 24 1020.6
20260502001004 66 310 2.0 10.0 0.00 0.00 0.00 25 1020.6
20260502000004 65 286 2.0 11.0 0.00 0.00 0.00 26 1020.6
20260501235004 66 269 2.0 9.0 0.00 0.00 0.00 26 1020.7
20260501234004 66 316 2.0 9.0 0.00 0.00 0.00 27 1020.7
20260501233004 66 282 2.0 10.0 0.00 0.00 0.00 24 1020.7
20260501232005 66 329 2.0 10.0 0.00 0.00 0.00 26 1020.7
20260501231004 66 300 1.0 6.0 0.00 0.00 0.00 25 1020.7
20260501230004 66 293 2.0 8.0 0.00 0.00 0.00 26 1020.7
20260501225004 66 307 2.0 10.0 0.00 0.00 0.00 25 1021.4
20260501224004 65 310 2.0 10.0 0.00 0.00 0.00 26 1021.4
20260501223004 66 277 1.0 8.0 0.00 0.00 0.00 25 1021.4
20260501222004 67 27 2.0 8.0 0.00 0.00 0.00 28 1021.4
20260501221004 65 343 2.0 9.0 0.00 0.00 0.00 25 1021.4
20260501220004 65 333 2.0 11.0 0.00 0.00 0.00 26 1021.4
20260501215004 64 299 2.0 11.0 0.00 0.00 0.00 27 1021.9
20260501214004 65 336 2.0 10.0 0.00 0.00 0.00 29 1021.9
20260501213004 63 305 2.0 10.0 0.00 0.00 0.00 26 1021.9
20260501212004 63 332 3.0 11.0 0.00 0.00 0.00 28 1021.9
20260501211004 64 5 1.0 8.0 0.00 0.00 0.00 29 1021.9
20260501210004 63 17 3.0 10.0 0.00 0.00 0.00 28 1021.9
20260501205004 62 312 2.0 11.0 0.00 0.00 0.00 30 1022.1
20260501204004 63 297 2.0 9.0 0.00 0.00 0.00 29 1022.1
20260501203005 62 261 2.0 14.0 0.00 0.00 0.00 29 1022.1
20260501202005 62 298 2.0 9.0 0.00 0.00 0.00 29 1022.1
20260501201005 61 305 2.0 11.0 0.00 0.00 0.00 31 1022.1
20260501200005 60 24 2.0 9.0 0.00 0.00 0.00 29 1022.1
20260501195005 61 317 2.0 11.0 0.00 0.00 0.00 30 1022.5
20260501194005 61 293 2.0 12.0 0.00 0.00 0.00 32 1022.5
20260501193005 61 293 2.0 9.0 0.00 0.00 0.00 34 1022.5
20260501192005 60 308 2.0 10.0 0.00 0.00 0.00 34 1022.5
20260501191005 60 302 2.0 10.0 0.00 0.00 0.00 32 1022.5
20260501190005 60 337 1.0 9.0 0.00 0.00 0.00 34 1022.5
20260501185005 60 62 1.0 8.0 0.00 0.00 0.00 31 1023.1
20260501184005 59 320 1.0 7.0 0.00 0.00 0.00 32 1023.1
20260501183005 60 28 1.0 7.0 0.00 0.00 0.00 31 1023.1
20260501182005 59 17 1.0 7.0 0.00 0.00 0.00 33 1023.1
20260501181005 57 333 1.0 9.0 0.00 0.00 0.00 34 1023.1
20260501180005 58 235 1.0 6.0 0.00 0.00 0.00 32 1023.1
20260501175005 57 71 1.0 7.0 0.00 0.00 0.00 33 1023.5
20260501174005 57 281 1.0 8.0 0.00 0.00 0.00 34 1023.5
20260501173007 56 301 1.0 4.0 0.00 0.00 0.00 36 1023.5
20260501172005 56 319 1.0 6.0 0.00 0.00 0.00 34 1023.5
20260501171005 55 325 1.0 7.0 0.00 0.00 0.00 38 1023.5
20260501170005 55 306 2.0 8.0 0.00 0.00 0.00 40 1023.5
20260501165005 55 284 1.0 7.0 0.00 0.00 0.00 44 1023.6
20260501164005 54 329 2.0 7.0 0.00 0.00 0.00 39 1023.6
20260501163005 53 323 1.0 7.0 0.00 0.00 0.00 39 1023.6
20260501162005 53 290 2.0 11.0 0.00 0.00 0.00 42 1023.6
20260501161005 53 293 2.0 8.0 0.00 0.00 0.00 49 1023.6
20260501160005 53 278 2.0 9.0 0.00 0.00 0.00 46 1023.6
20260501155005 53 276 1.0 6.0 0.00 0.00 0.00 41 1023.8
20260501154005 52 274 1.0 5.0 0.00 0.00 0.00 38 1023.8
20260501153005 51 336 1.0 6.0 0.00 0.00 0.00 39 1023.8